AirNav   SIMCOM
 
 1004 users online  

NA86 Johnson Private Airstrip
Luverne, North Dakota, USA


FAA INFORMATION EFFECTIVE 09 NOVEMBER 2017

Location

FAA Identifier: NA86
Lat/Long: 47-19-59.9630N / 097-54-03.3510W
47-19.999383N / 097-54.055850W
47.3333231 / -97.9009308
(estimated)
Elevation: 1492 ft. / 455 m (estimated)
Variation: 07E (1985)
From city: 4 miles NE of LUVERNE, ND
Time zone: UTC -6 (UTC -5 during Daylight Saving Time)
Zip code: 58056

Airport Operations

Airport use: Private use. Permission required prior to landing
Activation date: 08/1982
Control tower: no
ARTCC: MINNEAPOLIS CENTER
FSS: GRAND FORKS FLIGHT SERVICE STATION
Attendance: UNATNDD
Wind indicator: yes
Segmented circle: no

Airport Communications

WX AWOS-3 at S32 (10 nm NW): 118.750 (701-797-2566)

Nearby radio navigation aids

VOR radial/distance  VOR name  Freq  Var
JMSr043/39.8JAMESTOWN VOR/DME114.5010E

Airport Services

Fuel available: FUEL NOT FOR SALE-EMERGENCY USE ONLY.

Runway Information

Runway 17/35

Dimensions: 4100 x 50 ft. / 1250 x 15 m
Surface: turf
RUNWAY 17  RUNWAY 35
Traffic pattern: leftleft
Obstructions: 30 ft. trees, 50 ft. from runway
AND BUILDING.
none

Airport Ownership and Management from official FAA records

Ownership: Privately-owned
Owner: VERNON L. JOHNSON
RT. 2 BOX 60
LUVERNE, ND 58056
Phone 701-945-2607
Manager: VERNON L. JOHNSON
RT. 2 BOX 60
LUVERNE, ND 58056
Phone 701-945-2607

Airport Operational Statistics

Aircraft based on the field: 1
Single engine airplanes: 1
    

Instrument Procedures

There are no published instrument procedures at NA86.

Some nearby airports with instrument procedures:

S32 - Cooperstown Municipal Airport (10 nm NW)
KBAC - Barnes County Municipal Airport (24 nm S)
4V4 - Northwood Municipal Airport-Vince Field (27 nm NE)
3H4 - Hillsboro Municipal Airport (34 nm E)
KJMS - Jamestown Regional Airport (40 nm SW)
 
Loc | Ops | Rwys | IFR | FBO | Links
Com | Nav | Svcs | Stats | Notes


 
Area around NA86 (Johnson Private Airstrip)
 
Road maps at: MapQuest Bing Google
 
Aerial photo
No photo
 
Sectional chart

 
Airport distance calculator
Flying to Johnson Private Airstrip? Find the distance to fly.

From to NA86

Sunrise and sunset
Times for 24-Nov-2017
 Local
(UTC-6)
 Zulu
(UTC)
Morning civil twilight07:1613:16
Sunrise07:5013:50
Sunset16:4722:47
Evening civil twilight17:2123:21

Current date and time
Zulu (UTC)  24-Nov-2017 19:26:57
Local (UTC-6)  24-Nov-2017 13:26:57
 
METAR
KS32 
10nm NW 
241915Z AUTO 30021G27KT 10SM CLR 07/03 A2953 RMK AO2
TAF
KJMS 
39nm SW 
241720Z 2418/2518 32020G30KT P6SM FEW150 FM250000 30012G20KT P6SM FEW250 FM250400 30009KT P6SM FEW250
KRDR 
43nm NE 
241800Z 2418/2524 32012G18KT 9999 SKC QNH2944INS TEMPO 2418/2421 30025G30KT 510003 BECMG 2502/2503 30009KT 9999 SCT010 BKN020 WS020/32035KT 620202 QNH2977INS BECMG 2508/2509 VRB06KT 9999 SCT008 BKN020 620202 QNH2992INS TX09/2419Z TNM03/2511Z
KGFK 
47nm NE 
241731Z 2418/2518 31017G22KT P6SM SCT050 SCT250 FM250000 31009KT P6SM BKN130 FM251100 34007KT P6SM SCT110
NOTAMs
Click for the latest NOTAMs
NOTAMs are issued by the DoD/FAA and will open in a separate window not controlled by AirNav.

 

 
 

Would you like to see your business listed on this page?

 If your business provides an interesting product or service to pilots, flight crews, aircraft, or users of the Johnson Private Airstrip, you should consider listing it here.  To start the listing process, click on the button below
 
Add a business
 

Other Pages about Johnson Private Airstrip

Update a link
 
Copyright © AirNav, LLC. All rights reserved. Privacy Policy  Contact